Regional Weather Roundup
Issued by NWS

Home | Current Version | Previous Version | Graphics & Text | Print | Product List | Glossary On
Versions: 1 2 3 4 5 6 7 8 9 10 11 12 13 14 15 16 17 18 19 20 21 22 23 24 25 26 27 28
000
ASUS45 KCYS 250110
RWRWY

WYOMING REGIONAL WEATHER ROUNDUP
NATIONAL WEATHER SERVICE CHEYENNE WY
700 PM MDT THU MAY 24 2018

NOTE:  "FAIR" INDICATES FEW OR NO CLOUDS BELOW 12,000 FEET
WITH NO SIGNIFICANT WEATHER AND/OR OBSTRUCTIONS TO VISIBILITY.

WYZ001-250200-
YELLOWSTONE NATIONAL PARK

CITY           SKY/WX    TMP DP  RH WIND       PRES   REMARKS
LK YELLOWSTONE NOT AVBL
W YELLOWSTONE  NOT AVBL

$$
WYZ002>013-054>058-071-098>099-250200-
NORTHERN WYOMING

CITY           SKY/WX    TMP DP  RH WIND       PRES   REMARKS
JACKSON        CLOUDY    57  50  77 NW6       30.17F
CODY           PTSUNNY   70  43  37 SW10      30.05R
GREYBULL       FAIR      79  47  32 NW8       29.95S
WORLAND        PTSUNNY   76  50  40 NE5       29.97S
SHERIDAN       FAIR      76  53  44 E3        29.94S
BUFFALO        FAIR      74  51  44 N7        30.01S
GILLETTE       FAIR      77  47  34 N9        29.95F
NEWCASTLE      FAIR      73  45  35 S8        29.96F

$$
WYZ014>020-022>026-101>103-250200-
CENTRAL WYOMING

CITY           SKY/WX    TMP DP  RH WIND       PRES   REMARKS
BIG PINEY      FAIR      63  42  46 N20       30.20F
PINEDALE       FAIR      61  43  51 NW17G25   30.22F
DUBOIS         CLOUDY    61  37  41 W14G21    30.19S
LANDER         FAIR      72  45  37 S8        30.04S
RIVERTON       FAIR      73  43  33 NW12      30.06S
CASPER         FAIR      74  44  34 W15G25    30.04S
DOUGLAS        FAIR      75  45  34 W12       30.03S

$$
WYZ021-027>030-104>119-250200-
SOUTHERN WYOMING

CITY           SKY/WX    TMP DP  RH WIND       PRES   REMARKS
EVANSTON       FAIR      69  35  28 W9G18     30.19S
FORT BRIDGER   FAIR      73  29  20 W13G18    30.21F
ROCK SPRINGS   PTSUNNY   69  36  29 W16       30.18S
DIXON          FAIR      75  30  19 W10       30.19S
RAWLINS        FAIR      72  33  24 W16       30.16S
SARATOGA       MOCLDY    72  30  21 SW14G21   30.20R
LARAMIE        PTSUNNY   70  32  24 W14       30.18S
CHEYENNE       CLOUDY    70  43  37 S9        30.12R
TORRINGTON     FAIR      79  54  41 NE7       29.97S
PINE BLUFFS    FAIR      72  43  35 CALM      30.07S

$$




USA.gov is the U.S. government's official web portal to all federal, state and local government web resources and services.